Tracking 26303 objects as of 1-Dec-2022
HD Live streaming from Space Station
objects crossing your sky now

SSA

Track SSA now!
10-day predictions
SSA is classified as:


NORAD ID: 13844
Int'l Code: 1983-008E
Perigee: 403.6 km
Apogee: 1,678.7 km
Inclination: 63.3 °
Period: 105.8 minutes
Semi major axis: 7412 km
RCS: Unknown
Launch date: February 9, 1983
Source: United States (US)
Launch site: AIR FORCE WESTERN TEST RANGE (AFWTR)
aabbcc
Your satellite tracking list
Your tracking list is empty




NASA's NSSDC Master Catalog

Two Line Element Set (TLE):
1 13844U 83008E   22335.42489680  .00002776  00000-0  26272-3 0  9999
2 13844  63.3029 310.6066 0860182 111.8065 257.6685 13.60460402181582
Source of the keplerian elements: McCants